www.pogodaiklimat.ru

ПОГОДА в Форт Кэмпбелл, KY

  • Прогноз погоды в Форт Кэмпбелл
  • Монитор погоды в Форт Кэмпбелл
  • Климат в Форт Кэмпбелл

АРХИВ ПОГОДЫ в Форт Кэмпбелл

Время (UTC), дата Ветер
(напр.,м/с)
 
Видим.   Явления Облачность Т
(С)
Тd
(С)
f
(%)
Тe
(С)
Тes
(С)
Комфортность

P
(гПа)

Po
(гПа)
Тmin
(С)
Tmax
(С)
R
(мм)
SD
(см)
17:42 25.03 СЗ  16 км    10/10 420 м  +13.0  +11.0  88  +10  +10    1016.7  995.7         
17:56 25.03 СЗ  16 км    10/10 360 м  +12.5  +11.4  93  +10  +10    1016.7  995.7         
18:23 25.03 СЗ  16 км    10/10 480 м  +13.0  +11.0  88  +11  +11    1016.3  995.3         
18:38 25.03 СЗ  16 км    10/10 420 м  +13.0  +11.0  88  +11  +11    1016.3  995.3         
18:39 25.03 СЗ  16 км    10/10 480 м  +13.0  +11.0  88  +11  +11    1016.7  995.7         
18:41 25.03 СЗ  16 км    10/10 420 м  +13.0  +11.0  88  +10  +10    1016.3  995.3         
18:56 25.03 СЗ  16 км    10/10 390 м  +12.3  +11.2  93  +9  +9    1016.7  995.7         
19:19 25.03 СЗ  7
{9} 
16 км    10/10 270 м  +12.0  +11.0  94  +9  +9    1017.1  996.0         
19:56 25.03 СЗ  14 км    10/10 240 м  +10.9  +10.9  100  +8  +8    1017.4  996.3         
20:35 25.03 С  7
{9} 
16 км    10/10 300 м  +11.0  +11.0  100  +7  +7    1017.7  996.7         
20:56 25.03 СЗ  16 км    10/10 300 м  +10.9  +10.6  98  +8  +8    1018.1  997.0         
21:35 25.03 СЗ  16 км  слабая морось  10/10 300 м  +10.0  +10.0  100  +6  +6    1018.5  997.3         
21:56 25.03 СЗ  11 км  слабая морось  10/10 300 м  +10.0  +10.0  100  +7  +7    1018.8  997.7         
22:00 25.03 СЗ  10 км  слабая морось, дымка  10/10 240 м  +10.0  +10.0  100  +7  +7    1019.1  998.0         
22:10 25.03 СЗ  10 км  слабая морось, дымка  10/10 180 м  +10.0  +10.0  100  +7  +7    1019.1  998.0         
22:13 25.03 СЗ  10 км  дымка  10/10 180 м  +10.0  +10.0  100  +7  +7    1019.1  998.0         
22:27 25.03 СЗ  11 км    10/10 210 м  +10.0  +10.0  100  +7  +7    1019.1  998.0         
22:28 25.03 СЗ  11 км    10/10 240 м  +10.0  +10.0  100  +7  +7    1019.1  998.0         
22:36 25.03 СЗ  14 км    10/10 210 м  +10.0  +10.0  100  +7  +7    1019.5  998.3         
22:43 25.03 С  16 км    10/10 240 м  +10.0  +10.0  100  +6  +6    1019.5  998.3         
22:45 25.03 С  16 км    10/10 390 м  +10.0  +10.0  100  +7  +7    1019.5  998.3         
22:49 25.03 С  16 км    10/10 450 м  +10.0  +10.0  100  +7  +7    1019.5  998.3         
22:56 25.03 С  16 км    10/10 450 м  +10.1  +9.9  99  +7  +7    1019.5  998.3  +9.7  +13.4     
23:56 25.03 С  16 км    10/10 480 м  +10.1  +8.2  88  +6  +6    1020.5  999.3         
00:42 26.03 С  16 км    10/10 600 м  +10.0  +8.0  87  +6  +6    1021.5  1000.3         
00:56 26.03 С  16 км    10/10 630 м  +9.9  +7.0  82  +6  +6    1021.5  1000.3         
01:56 26.03 С  16 км    10/10 630 м  +9.2  +5.9  80  +5  +5    1022.5  1001.3         
02:56 26.03 С  16 км    10/10 960 м  +9.0  +5.4  78  +5  +5    1022.8  1001.6         
03:56 26.03 С  16 км    8/8 810 м  +8.7  +5.1  78  +5  +5    1023.2  1002.0         
04:56 26.03 С  16 км    10/10 660 м  +8.4  +5.0  79  +4  +4    1023.3  1002.0  +8.4  +10.2     
05:56 26.03 СВ  16 км    8/8 810 м  +7.6  +3.1  73  +4  +4    1023.3  1002.0         
06:56 26.03 С  16 км    ясно  +6.0  +2.8  80  +2  +2    1023.7  1002.3         
07:56 26.03 С  16 км    ясно  +4.8  +3.0  88  +1  +1    1024.0  1002.6         
08:56 26.03 С  16 км    ясно  +3.7  +1.9  88  -1  -1    1024.8  1003.3         
09:56 26.03 С  16 км    ясно  +3.2  +0.1  80  -2  -2    1025.4  1004.0         
10:56 26.03 С  16 км    ясно  +1.9  -1.9  76  -3  -3    1026.5  1005.0  +1.7  +8.3     
11:56 26.03 С  16 км    ясно  +3.6  -3.7  59  -1  -1    1027.1  1005.6         
12:56 26.03 СВ  16 км    ясно  +5.4  -6.2  43  +1  +1    1027.1  1005.6         
13:56 26.03 СВ  16 км    ясно  +7.0  -6.7  37  +3  +5    1027.4  1006.0         
14:56 26.03 СВ  16 км    ясно  +8.3  -7.0  33  +6  +11    1027.7  1006.3         
15:56 26.03 С  16 км    ясно  +9.4  -7.3  30  +7  +13    1027.4  1006.0         
16:56 26.03 С  16 км    ясно  +9.8  -7.4  29  +7  +10    1027.4  1006.0  +2.0  +9.9     
17:56 26.03 С  7
{8} 
16 км    ясно  +10.7  -7.6  27  +8  +11    1026.7  1005.3         
18:56 26.03 С  16 км    ясно  +11.7  -6.7  27  +11  +22  опасность
простуды 
1026.0  1004.6         
19:56 26.03 С  6
{9} 
16 км    ясно  +11.9  -7.5  25  +9  +12    1026.1  1004.6         
20:56 26.03 С  16 км    ясно  +12.0  -6.9  26  +10  +13    1026.1  1004.6         
21:56 26.03 С  16 км    ясно  +11.2  -6.7  28  +9  +11    1026.1  1004.6         
22:56 26.03 С  16 км    ясно  +9.8  -6.5  31  +8  +8    1026.5  1005.0  +9.8  +12.2     

 

Местоположение метеостанции Campbell Army Airfield: широта 36.6667 долгота -87.5000 высота над уровнем моря 174 м.

В архиве по умолчанию представлена погода в Форт Кэмпбелл за последние 1-2 суток. Обновление информации о фактической погоде в базе происходит ежечасно! Архивные данные за месяц целиком и за предыдущие месяцы Вы можете получить, выбрав интересующий диапазон дат из раскрывающегося списка и нажав кнопку "Ввод!".

Внимание! Архив погоды МЕТАР в базе сайта хранится не более 60 дней. Нет смысла пытаться выбрать более раннюю дату.

Внимание! Время в таблицах - всемирное. Для получения местного времени необходимо прибавить поправку, которая в Форт Кэмпбелл равна -6 ч.

Ветер - указаны скорость ветра в м/с и направление, откуда дует ветер: С - северный, СВ - северо-восточный, В - восточный, ЮВ - юго-восточный, Ю - южный, ЮЗ - юго-западный, З - западный, СЗ - северо-западный.
Видимость - горизонтальная дальность видимости в метрах или километрах. При видимости от 1 до 10 км при отсутствии осадков обычно наблюдается дымка, при ухудшении видимости до 1 км и менее - туман. В сухую погоду видимость может ухудшаться дымом, пылью или мглою.
Атмосферные явления - указаны явления, наблюдавшиеся в указанный момент времени.
Облачность - указаны через наклонную черту верхняя и нижняя облачность в баллах и высота нижней границы облаков в метрах. Внимание: облачность, как и прочие метеорологические величины в США измеряются автоматическими метеостанциями. Указанные значения в баллах носят условный характер и показывают процент времени, в течение которого, в среднем, лазерный луч высотомера отражался от облаков обратно.
T - Температура воздуха - температура, измеренная на высоте 2 м над землей.
Td - Температура точки росы - температура, при понижении до которой содержащийся в воздухе водяной пар достигнет насыщения.
f - Относительная влажность воздуха - влажноcть воздуха, измеренная на высоте 2 м над землей.
Te - Эффективная температура - температура, которую ощущает одетый по сезону человек в тени. Характеристика душности погоды. При расчете учитывается влияние влажности воздуха и скорости ветра на теплоощущения человека.
Tes - Эффективная температура на солнце - температура, которую ощущает человек, с поправкой на солнечный нагрев. Характеристика знойности погоды. Зависит от высоты солнца над горизонтом, облачности и скорости ветра. Ночью, в пасмурную погоду, а также при ветре 12 м/с и более поправка равна нулю.
P - Атмосферное давление - приведенное к уровню моря атмосферное давление.
Po - Атмосферное давление - измеренное на уровне метеостанции атмосферное давление.
Tmin - Минимальная температура - минимум температуры воздуха на высоте 2 м над землей.
Tmax - Максимальная температура - максимум температуры воздуха на высоте 2 м над землей.
R - Количество осадков - Количество выпавших осадков за 3 или 6 часов, мм.
SD - Снежный покров - Высота снежного покрова, см.